Вернуться в каталог

STARLINK-5848

АктивенСвязьVLEO
NORAD 55932·PAYLOAD·🇺🇸 United States

Запущен Mar 17, 2023 с Vandenberg Space Force Base

Loading…

Ближайшие Пролёты (ближайшие 24 часа)

TLE

СвежийSource: CelesTrak SupGP

Эпоха: Sep 14, 2026, 22:31 UTC

1 55932C 23037U   26257.93868056 -.00020740  00000+0 -17381-2 0  2579
2 55932  70.0007 147.1036 0002813 272.4150 156.2763 14.98340849    18

Отслеживайте STARLINK-5848 в реальном времени с AllMySat

Download on the App Store